Tracking 29777 objects as of 4-Oct-2024
HD Live streaming from Space Station
objects crossing your sky now

SL-8 DEB

Track SL-8 DEB now!
10-day predictions


NORAD ID: 27746
Int'l Code: 1991-009DB
Perigee: 1,485.5 km
Apogee: 1,762.3 km
Inclination: 74.1 °
Period: 118.6 minutes
Semi major axis: 7994 km
RCS: 0.0277 m2 (small)
Launch date: February 12, 1991
Source: Commonwealth of Independent States (former USSR) (CIS)
Launch site: PLESETSK MISSILE AND SPACE COMPLEX (PKMTR)

Note: This is SATELLITE DEBRIS
Your satellite tracking list
Your tracking list is empty




NASA's NSSDC Master Catalog

Two Line Element Set (TLE):
1 27746U 91009DB  24276.85890003  .00000295  00000-0  30622-2 0  9990
2 27746  74.0906 125.3913 0173104 221.8899 148.5950 12.14456703498201
Source of the keplerian elements: AFSPC